CW4320 Weather Reports


time (UTC)temp
C
wind
direction
speed
KPH
gust
KPH
rain 1hr
cm
rain 24hr
cm
rain mn
cm
humidity
%
barometer
mb
20260510190021 15 212 3.2 8.0 0.00 0.00 0.33 80 1010.0
20260510185530 15 210 3.2 8.0 0.03 0.00 0.33 80 1009.8
20260510184528 15 223 6.4 11.3 0.03 0.00 0.33 80 1009.8
20260510183525 15 215 6.4 11.3 0.05 0.00 0.33 80 1009.5
20260510183031 15 183 6.4 11.3 0.08 0.00 0.33 80 1009.5
20260510182540 15 255 6.4 9.7 0.13 0.00 0.33 80 1009.5
20260510182025 15 225 0.0 14.5 0.15 0.00 0.33 80 1009.5
20260510181536 15 251 6.4 14.5 0.18 0.00 0.33 80 1009.5
20260510181023 15 288 1.6 14.5 0.18 0.00 0.33 80 1009.6
20260510180543 15 271 4.8 14.5 0.18 0.00 0.33 80 1009.6
20260510180026 15 251 6.4 11.3 0.18 0.00 0.33 80 1009.6
20260510175538 15 273 8.0 14.5 0.15 0.00 0.30 80 1009.5
20260510175021 15 286 6.4 17.7 0.15 0.00 0.30 80 1009.5
20260510174529 15 284 8.0 19.3 0.15 0.00 0.30 80 1009.5
20260510174035 15 295 9.7 24.1 0.15 0.00 0.28 80 1009.1
20260510173523 15 281 11.3 24.1 0.15 0.00 0.28 80 1009.1
20260510173029 15 302 12.9 19.3 0.10 0.00 0.23 80 1009.1
20260510172027 16 280 14.5 24.1 0.05 0.00 0.18 80 1009.0
20260510171027 16 291 11.3 19.3 0.00 0.00 0.15 80 1008.9
20260510170550 16 276 11.3 17.7 0.00 0.00 0.15 80 1008.9
20260510170037 16 290 8.0 14.5 0.00 0.00 0.15 72 1008.9
20260510165031 17 323 9.7 17.7 0.00 0.00 0.15 60 1008.7
20260510164030 18 316 11.3 17.7 0.00 0.00 0.15 52 1008.4
20260510163538 18 294 9.7 17.7 0.00 0.00 0.15 48 1008.4
20260510163025 19 238 6.4 17.7 0.00 0.00 0.15 41 1008.4
20260510162533 19 253 6.4 22.5 0.00 0.00 0.15 39 1007.9
20260510161039 19 200 11.3 17.7 0.00 0.00 0.15 43 1007.7
20260510160601 19 293 8.0 20.9 0.00 0.00 0.15 48 1007.7
20260510160029 19 227 11.3 20.9 0.00 0.00 0.15 46 1007.7
20260510155537 19 236 8.0 19.3 0.00 0.00 0.15 49 1007.5
20260510155020 19 288 4.8 16.1 0.00 0.00 0.15 52 1007.5
20260510154527 18 262 9.7 17.7 0.00 0.00 0.15 52 1007.5
20260510154032 18 208 9.7 17.7 0.05 0.00 0.15 51 1007.5
20260510153522 18 241 6.4 16.1 0.15 0.00 0.15 49 1007.5
20260510153028 18 214 8.0 16.1 0.15 0.00 0.15 50 1007.5
20260510152537 18 229 9.7 16.1 0.15 0.00 0.15 48 1007.5
20260510152024 18 299 6.4 16.1 0.15 0.00 0.15 47 1007.5
20260510151531 18 258 4.8 17.7 0.15 0.00 0.15 46 1007.5
20260510151039 18 220 6.4 17.7 0.15 0.00 0.15 53 1007.4
20260510150601 18 227 6.4 17.7 0.15 0.00 0.15 57 1007.4
20260510150021 17 240 8.0 17.7 0.15 0.00 0.15 55 1007.4
20260510145037 17 158 3.2 19.3 0.15 0.00 0.15 52 1007.7
20260510144529 17 248 11.3 27.4 0.15 0.00 0.15 48 1007.7
20260510144033 18 149 6.4 27.4 0.13 0.00 0.13 43 1007.3
20260510143540 18 158 11.3 24.1 0.00 0.00 0.00 31 1007.3
20260510143029 19 255 4.8 11.3 0.00 0.00 0.00 29 1007.3
20260510142034 19 195 6.4 20.9 0.00 0.00 0.00 27 1007.4
20260510141526 19 177 12.9 20.9 0.00 0.00 0.00 27 1007.4
20260510141034 19 195 6.4 17.7 0.00 0.00 0.00 27 1007.2
20260510140553 19 169 8.0 20.9 0.00 0.00 0.00 29 1007.2
20260510140037 19 96 8.0 20.9 0.00 0.00 0.00 28 1007.2
20260510135526 19 108 9.7 22.5 0.00 0.00 0.00 28 1007.3
20260510135045 19 91 12.9 22.5 0.00 0.00 0.00 28 1007.3
20260510134539 19 156 8.0 20.9 0.00 0.00 0.00 28 1007.3
20260510134042 19 150 11.3 22.5 0.00 0.00 0.00 25 1007.3
20260510133034 19 131 6.4 20.9 0.00 0.00 0.00 25 1007.3
20260510132530 18 77 8.0 20.9 0.00 0.00 0.00 27 1007.2
20260510132034 18 127 6.4 22.5 0.00 0.00 0.00 26 1007.2
20260510130551 18 141 6.4 19.3 0.00 0.00 0.00 25 1007.1
20260510130034 17 100 11.3 22.5 0.00 0.00 0.00 26 1007.1
20260510125525 17 142 12.9 22.5 0.00 0.00 0.00 28 1007.9
20260510125029 17 95 8.0 14.5 0.00 0.00 0.00 31 1007.9
20260510124536 17 130 9.7 25.7 0.00 0.00 0.00 31 1007.9
20260510124043 17 173 12.9 43.5 0.00 0.00 0.00 31 1008.6
20260510123526 18 186 25.7 43.5 0.00 0.00 0.00 31 1008.6
20260510123036 18 153 16.1 32.2 0.00 0.00 0.00 29 1008.6
20260510122523 18 156 9.7 22.5 0.00 0.00 0.00 30 1008.7
20260510121536 18 154 6.4 17.7 0.00 0.00 0.00 31 1008.7
20260510121021 18 114 8.0 19.3 0.00 0.00 0.00 30 1008.7
20260510120545 18 169 4.8 19.3 0.00 0.00 0.00 31 1008.7
20260510120026 18 143 11.3 24.1 0.00 0.00 0.00 30 1008.7
20260510115537 19 165 12.9 24.1 0.00 0.00 0.00 29 1008.6
20260510115022 18 151 8.0 17.7 0.00 0.00 0.00 33 1008.5
20260510114531 18 113 11.3 17.7 0.00 0.00 0.00 35 1008.5
20260510114035 17 163 9.7 16.1 0.00 0.00 0.00 40 1008.5
20260510113531 17 172 8.0 16.1 0.00 0.00 0.00 51 1008.5
20260510111526 17 30 8.0 19.3 0.00 0.00 0.00 59 1008.6
20260510111033 17 360 11.3 19.3 0.00 0.00 0.00 56 1008.6
20260510110554 17 360 8.0 16.1 0.00 0.00 0.00 50 1008.6
20260510110037 17 332 8.0 20.9 0.00 0.00 0.00 46 1008.6
20260510105526 18 341 16.1 20.9 0.00 0.00 0.00 50 1008.6
20260510105033 18 334 8.0 16.1 0.00 0.00 0.00 47 1008.6
20260510104521 18 360 4.8 16.1 0.00 0.00 0.00 44 1008.6
20260510104032 18 18 4.8 11.3 0.00 0.00 0.00 46 1008.4
20260510103539 19 360 8.0 11.3 0.00 0.00 0.00 42 1008.4
20260510103027 20 360 6.4 17.7 0.00 0.00 0.00 35 1008.4
20260510102538 20 205 4.8 17.7 0.00 0.00 0.00 32 1008.4
20260510102025 20 259 6.4 16.1 0.00 0.00 0.00 37 1008.4
20260510101535 20 292 1.6 6.4 0.00 0.00 0.00 34 1008.4
20260510101039 20 263 3.2 9.7 0.00 0.00 0.00 33 1008.3
20260510100601 21 220 3.2 14.5 0.00 0.00 0.00 24 1008.3
20260510100024 20 193 6.4 14.5 0.00 0.00 0.00 23 1008.3
20260510095531 20 141 4.8 17.7 0.00 0.00 0.00 24 1008.4
20260510095035 21 204 6.4 17.7 0.00 0.00 0.00 25 1008.4
20260510094524 21 96 4.8 19.3 0.00 0.00 0.00 28 1008.4
20260510094032 21 118 12.9 22.5 0.00 0.00 0.00 25 1008.4
20260510093520 21 103 11.3 22.5 0.00 0.00 0.00 24 1008.4
20260510093025 21 133 9.7 16.1 0.00 0.00 0.00 25 1008.4
20260510092533 20 82 8.0 14.5 0.00 0.00 0.00 26 1008.5
20260510091527 20 100 6.4 11.3 0.00 0.00 0.00 28 1008.5
20260510091034 19 131 4.8 11.3 0.00 0.00 0.00 31 1008.4
20260510090557 19 41 8.0 11.3 0.00 0.00 0.00 34 1008.4
20260510090025 20 48 6.4 8.0 0.00 0.00 0.00 32 1008.4
20260510084536 20 87 6.4 11.3 0.00 0.00 0.00 26 1008.4
20260510084022 20 93 4.8 16.1 0.00 0.00 0.00 28 1008.5
20260510083530 20 60 4.8 16.1 0.00 0.00 0.00 29 1008.5
20260510083035 20 88 6.4 20.9 0.00 0.00 0.00 29 1008.5
20260510081522 20 109 3.2 8.0 0.00 0.00 0.00 29 1008.6
20260510080550 18 154 1.6 6.4 0.00 0.00 0.00 34 1008.7
20260510080033 18 103 1.6 6.4 0.00 0.00 0.00 34 1008.7
20260510075525 18 55 4.8 6.4 0.00 0.00 0.00 37 1008.7
20260510075033 18 77 0.0 4.8 0.00 0.00 0.00 35 1008.7
20260510074523 18 77 3.2 6.4 0.00 0.00 0.00 37 1008.7
20260510074027 19 108 4.8 6.4 0.00 0.00 0.00 37 1008.5
20260510073026 18 96 3.2 6.4 0.00 0.00 0.00 43 1008.5
20260510072533 18 141 1.6 4.8 0.00 0.00 0.00 44 1008.4
20260510072037 18 141 1.6 6.4 0.00 0.00 0.00 50 1008.4
20260510071527 18 110 4.8 6.4 0.00 0.00 0.00 56 1008.4
20260510071032 18 119 3.2 4.8 0.00 0.00 0.00 59 1008.2
20260510070557 17 184 1.6 4.8 0.00 0.00 0.00 75 1008.2
20260510065023 16 184 1.6 4.8 0.00 0.00 0.00 80 1008.1
20260510064533 16 184 1.6 4.8 0.00 0.00 0.00 80 1008.1
20260510064038 16 184 1.6 4.8 0.00 0.00 0.00 80 1007.9
20260510063035 15 183 3.2 4.8 0.00 0.00 0.00 80 1007.9
20260510062526 15 221 1.6 3.2 0.00 0.00 0.00 80 1007.9
20260510001535 16 183 17.7 29.0 0.00 0.33 0.00 59 1006.8
20260510001039 16 104 12.9 24.1 0.00 0.33 0.00 59 1006.9
20260510000601 16 141 14.5 29.0 0.00 0.33 0.00 60 1006.9
20260510000024 16 137 12.9 29.0 0.00 0.33 0.00 61 1006.9
20260509235039 16 150 14.5 30.6 0.00 0.33 0.33 73 1007.2
20260509234528 16 127 9.7 30.6 0.00 0.33 0.33 76 1007.2
20260509234033 15 112 12.9 22.5 0.00 0.33 0.33 80 1007.3
20260509233522 15 135 9.7 17.7 0.00 0.33 0.33 80 1007.3
20260509233032 15 133 12.9 19.3 0.00 0.33 0.33 80 1007.3
20260509232540 15 143 11.3 19.3 0.00 0.33 0.33 80 1007.3
20260509232024 15 123 9.7 16.1 0.00 0.33 0.33 80 1007.3
20260509231532 15 151 9.7 17.7 0.00 0.33 0.33 80 1007.3
20260509231038 15 127 11.3 19.3 0.00 0.33 0.33 80 1007.2
20260509230601 15 122 8.0 20.9 0.00 0.33 0.33 80 1007.2
20260509230023 15 155 11.3 19.3 0.00 0.33 0.33 80 1007.2
20260509225039 15 134 9.7 17.7 0.00 0.33 0.33 80 1007.1
20260509224527 15 143 6.4 12.9 0.03 0.33 0.33 80 1007.1
20260509223035 15 129 9.7 20.9 0.03 0.33 0.33 80 1006.9
20260509222521 15 148 11.3 20.9 0.03 0.33 0.33 80 1007.3
20260509222026 15 170 11.3 22.5 0.03 0.33 0.33 80 1007.3
20260509221533 15 146 11.3 22.5 0.03 0.33 0.33 80 1007.3
20260509220601 16 151 12.9 22.5 0.03 0.33 0.33 80 1007.2
20260509220022 16 183 9.7 19.3 0.03 0.33 0.33 80 1007.2
20260509215528 16 164 8.0 16.1 0.03 0.33 0.33 80 1007.2
20260509215033 16 120 8.0 17.7 0.03 0.33 0.33 80 1007.2
20260509214521 16 180 8.0 20.9 0.00 0.33 0.33 80 1007.2
20260509214025 16 118 8.0 20.9 0.00 0.33 0.33 80 1007.5
20260509213538 16 136 8.0 17.7 0.00 0.33 0.33 80 1007.5
20260509213021 16 172 9.7 17.7 0.00 0.33 0.33 80 1007.5
20260509212531 16 131 4.8 9.7 0.00 0.33 0.33 80 1007.5
20260509212037 16 139 4.8 11.3 0.00 0.33 0.33 80 1007.5
20260509211526 16 139 9.7 11.3 0.00 0.33 0.33 80 1007.5
20260509211031 16 215 3.2 8.0 0.00 0.33 0.33 80 1007.5
20260509210553 16 208 3.2 8.0 0.00 0.33 0.33 80 1007.5
20260509205031 17 238 1.6 8.0 0.00 0.33 0.33 80 1007.3
20260509204536 17 226 3.2 12.9 0.00 0.33 0.33 80 1007.3
20260509204026 17 272 9.7 14.5 0.00 0.33 0.33 80 1006.7
20260509202528 16 134 6.4 14.5 0.00 0.33 0.33 80 1006.5
20260509202031 16 86 6.4 9.7 0.00 0.33 0.33 80 1006.5
20260509201520 16 99 6.4 9.7 0.00 0.33 0.33 80 1006.5
20260509201026 16 88 8.0 9.7 0.00 0.33 0.33 80 1006.1
20260509200547 16 124 6.4 9.7 0.00 0.33 0.33 80 1006.1
20260509200026 16 90 6.4 9.7 0.00 0.33 0.33 80 1006.1
20260509195535 16 89 6.4 9.7 0.00 0.33 0.33 80 1005.9
20260509195022 16 85 4.8 9.7 0.00 0.33 0.33 80 1005.9
20260509194533 16 92 6.4 8.0 0.00 0.33 0.33 80 1005.9
20260509194021 16 98 4.8 8.0 0.00 0.33 0.33 80 1005.7
20260509193529 16 84 6.4 8.0 0.00 0.33 0.33 80 1005.7
20260509193035 16 91 3.2 11.3 0.00 0.33 0.33 80 1005.7
20260509192521 16 78 4.8 11.3 0.00 0.33 0.33 80 1005.7
20260509192028 16 98 6.4 11.3 0.00 0.33 0.33 80 1005.7
20260509191537 16 114 3.2 9.7 0.00 0.33 0.33 80 1005.7